Погода в Зугрэсе

Украина / Донецкая область     48˚00′41″N   38˚15′54″E
темп.,
°C
ветер,
м/с
пор.,
м/с
влажн.,
%
обл.,
%
осадки,
мм/ч
давл.,
гПа
погр.,
м
17 января, вс
вс1723:00−11˚ююз119286 0.0 101621
02:00−10˚всв119186 0.0 101521
05:00−11˚в1290100 0.0 101427
08:00−10˚св3588100 0.0 1013191
11:00−8˚св4686100 0.0 1013338
14:00−8˚св5888100 0.0 1012457
17:00−9˚ссв61094100 0.5 1012411
20:00−10˚ссв61194100 2.8 1012399
18 января, пн
пн1823:00−11˚ссв71294100 2.3 1012380
02:00−11˚ссв4895100 3.3 1012345
05:00−11˚с3595100 1.5 1013317
08:00−13˚ссз3695100 2.1 1015295
11:00−11˚ссв359068 0.1 1016257
14:00−10˚ссз238857 0.1 1016328
17:00−14˚сз129586 0.0 101720
20:00−13˚ссз119693 0.1 101820
19 января, вт
вт1923:00−15˚зюз019793 0.1 101820
02:00−17˚юз0110089 0.1 101820
05:00−17˚ююз1110095 0.0 101820
08:00−16˚зсз229795 0.1 101933
11:00−13˚сз239075 0.0 1019250
14:00−12˚з348985 0.1 1018554
17:00−17˚зсз349692 0.0 101948
20:00−19˚сз229757 0.0 102120
20 января, ср
ср2023:00−19˚з22980 0.0 102220
02:00−20˚зсз229818 0.0 102320
05:00−19˚зсз229698 0.0 102320
08:00−19˚зсз129767 0.0 102520
11:00−14˚з238915 0.0 1026275
14:00−12˚з248856 0.0 1026450
17:00−17˚зсз119785 0.0 102720
20:00−18˚зсз119845 0.0 102920
21 января, чт
чт2123:00−19˚ю01970 0.0 102920
02:00−18˚ю11930 0.0 103020
05:00−18˚юв12910 0.0 102920
08:00−17˚ююв23974 0.0 103029
11:00−11˚ююв469790 0.0 1029235
14:00−9˚юв469795 0.1 1028209
17:00−10˚ююв3498100 0.1 1027109
20:00−7˚ююв3697100 0.1 1026170